Wetterdaten: Sonntag, 17.02.2013
Datum Zeit Temp. A. Feuchte A. Luftdruck Regen Wind Richtung Richtung Sonnenschein UV Solar Windben
17.02.2013 00:00 2,9 C 94 % 1024,0 hPa 0,0 mm 0,0 km/h (0 Bft) N 0 0 min 0 UV-I 0 W/m 0,0 km/h (0 Bft)
17.02.2013 00:10 2,9 C 94 % 1023,9 hPa 0,0 mm 0,0 km/h (0 Bft) N 0 0 min 0 UV-I 0 W/m 0,0 km/h (0 Bft)
17.02.2013 00:20 2,9 C 94 % 1024,0 hPa 0,0 mm 0,0 km/h (0 Bft) N 0 0 min 0 UV-I 0 W/m 0,0 km/h (0 Bft)
17.02.2013 00:30 2,9 C 94 % 1023,9 hPa 0,0 mm 0,0 km/h (0 Bft) N 0 0 min 0 UV-I 0 W/m 0,0 km/h (0 Bft)
17.02.2013 00:40 2,9 C 94 % 1024,0 hPa 0,0 mm 0,0 km/h (0 Bft) N 0 0 min 0 UV-I 0 W/m 0,0 km/h (0 Bft)
17.02.2013 00:50 2,9 C 94 % 1024,0 hPa 0,0 mm 0,0 km/h (0 Bft) S 180 0 min 0 UV-I 0 W/m 1,6 km/h (1 Bft)
17.02.2013 01:00 2,9 C 94 % 1023,9 hPa 0,0 mm 0,0 km/h (0 Bft) S 180 0 min 0 UV-I 0 W/m 1,6 km/h (1 Bft)
17.02.2013 01:10 2,8 C 94 % 1023,8 hPa 0,0 mm 0,0 km/h (0 Bft) N 0 0 min 0 UV-I 0 W/m 0,0 km/h (0 Bft)
17.02.2013 01:20 2,8 C 94 % 1023,8 hPa 0,0 mm 0,0 km/h (0 Bft) N 0 0 min 0 UV-I 0 W/m 0,0 km/h (0 Bft)
17.02.2013 01:30 2,8 C 94 % 1023,9 hPa 0,0 mm 0,0 km/h (0 Bft) N 0 0 min 0 UV-I 0 W/m 0,0 km/h (0 Bft)
17.02.2013 01:40 2,8 C 94 % 1023,8 hPa 0,0 mm 0,0 km/h (0 Bft) N 0 0 min 0 UV-I 0 W/m 0,0 km/h (0 Bft)
17.02.2013 01:50 2,9 C 94 % 1023,9 hPa 0,0 mm 0,0 km/h (0 Bft) N 0 0 min 0 UV-I 0 W/m 0,0 km/h (0 Bft)
17.02.2013 02:00 2,9 C 94 % 1023,9 hPa 0,0 mm 0,0 km/h (0 Bft) N 0 0 min 0 UV-I 0 W/m 0,0 km/h (0 Bft)
17.02.2013 02:10 2,9 C 94 % 1023,9 hPa 0,0 mm 0,0 km/h (0 Bft) N 0 0 min 0 UV-I 0 W/m 0,0 km/h (0 Bft)
17.02.2013 02:20 2,8 C 94 % 1023,9 hPa 0,0 mm 0,0 km/h (0 Bft) N 0 0 min 0 UV-I 0 W/m 0,0 km/h (0 Bft)
17.02.2013 02:30 2,8 C 94 % 1023,9 hPa 0,0 mm 0,0 km/h (0 Bft) N 0 0 min 0 UV-I 0 W/m 0,0 km/h (0 Bft)
17.02.2013 02:40 2,8 C 94 % 1023,9 hPa 0,0 mm 0,0 km/h (0 Bft) S 180 0 min 0 UV-I 0 W/m 1,6 km/h (1 Bft)
17.02.2013 02:50 2,8 C 94 % 1023,9 hPa 0,0 mm 0,0 km/h (0 Bft) N 0 0 min 0 UV-I 0 W/m 0,0 km/h (0 Bft)
17.02.2013 03:00 2,8 C 94 % 1023,9 hPa 0,0 mm 0,0 km/h (0 Bft) N 0 0 min 0 UV-I 0 W/m 0,0 km/h (0 Bft)
17.02.2013 03:10 2,8 C 94 % 1023,8 hPa 0,0 mm 0,0 km/h (0 Bft) N 0 0 min 0 UV-I 0 W/m 0,0 km/h (0 Bft)
17.02.2013 03:20 2,7 C 94 % 1023,8 hPa 0,0 mm 0,0 km/h (0 Bft) N 0 0 min 0 UV-I 0 W/m 0,0 km/h (0 Bft)
17.02.2013 03:30 2,7 C 94 % 1023,8 hPa 0,0 mm 0,0 km/h (0 Bft) N 0 0 min 0 UV-I 0 W/m 0,0 km/h (0 Bft)
17.02.2013 03:40 2,7 C 94 % 1023,8 hPa 0,0 mm 0,0 km/h (0 Bft) N 0 0 min 0 UV-I 0 W/m 0,0 km/h (0 Bft)
17.02.2013 03:50 2,7 C 94 % 1023,8 hPa 0,0 mm 0,0 km/h (0 Bft) N 0 0 min 0 UV-I 0 W/m 0,0 km/h (0 Bft)
17.02.2013 04:00 2,7 C 94 % 1023,8 hPa 0,0 mm 0,0 km/h (0 Bft) N 0 0 min 0 UV-I 0 W/m 0,0 km/h (0 Bft)
17.02.2013 04:10 2,7 C 94 % 1023,8 hPa 0,0 mm 0,0 km/h (0 Bft) N 0 0 min 0 UV-I 0 W/m 0,0 km/h (0 Bft)
17.02.2013 04:20 2,6 C 94 % 1023,8 hPa 0,0 mm 0,0 km/h (0 Bft) N 0 0 min 0 UV-I 0 W/m 0,0 km/h (0 Bft)
17.02.2013 04:30 2,6 C 94 % 1023,8 hPa 0,0 mm 0,0 km/h (0 Bft) N 0 0 min 0 UV-I 0 W/m 0,0 km/h (0 Bft)
17.02.2013 04:40 2,6 C 94 % 1023,8 hPa 0,0 mm 0,0 km/h (0 Bft) N 0 0 min 0 UV-I 0 W/m 0,0 km/h (0 Bft)
17.02.2013 04:50 2,6 C 94 % 1023,9 hPa 0,0 mm 0,0 km/h (0 Bft) N 0 0 min 0 UV-I 0 W/m 0,0 km/h (0 Bft)
17.02.2013 05:00 2,6 C 94 % 1023,9 hPa 0,0 mm 0,0 km/h (0 Bft) S 180 0 min 0 UV-I 0 W/m 1,6 km/h (1 Bft)
17.02.2013 05:10 2,6 C 94 % 1023,9 hPa 0,0 mm 0,0 km/h (0 Bft) S 180 0 min 0 UV-I 0 W/m 1,6 km/h (1 Bft)
17.02.2013 05:20 2,6 C 94 % 1023,8 hPa 0,0 mm 0,0 km/h (0 Bft) S 180 0 min 0 UV-I 0 W/m 1,6 km/h (1 Bft)
17.02.2013 05:30 2,6 C 94 % 1023,8 hPa 0,0 mm 0,0 km/h (0 Bft) S 180 0 min 0 UV-I 0 W/m 1,6 km/h (1 Bft)
17.02.2013 05:40 2,6 C 94 % 1023,8 hPa 0,0 mm 0,0 km/h (0 Bft) S 180 0 min 0 UV-I 0 W/m 3,2 km/h (1 Bft)
17.02.2013 05:50 2,6 C 94 % 1023,6 hPa 0,0 mm 1,6 km/h (1 Bft) S 180 0 min 0 UV-I 0 W/m 4,8 km/h (1 Bft)
17.02.2013 06:00 2,5 C 94 % 1023,8 hPa 0,0 mm 1,6 km/h (1 Bft) S 180 0 min 0 UV-I 0 W/m 6,4 km/h (2 Bft)
17.02.2013 06:10 2,4 C 94 % 1024,0 hPa 0,0 mm 0,0 km/h (0 Bft) S 180 0 min 0 UV-I 0 W/m 3,2 km/h (1 Bft)
17.02.2013 06:20 2,4 C 94 % 1023,9 hPa 0,0 mm 0,0 km/h (0 Bft) N 0 0 min 0 UV-I 0 W/m 0,0 km/h (0 Bft)
17.02.2013 06:30 2,4 C 94 % 1023,9 hPa 0,0 mm 0,0 km/h (0 Bft) N 0 0 min 0 UV-I 0 W/m 0,0 km/h (0 Bft)
17.02.2013 06:40 2,4 C 94 % 1023,8 hPa 0,0 mm 0,0 km/h (0 Bft) N 0 0 min 0 UV-I 0 W/m 0,0 km/h (0 Bft)
17.02.2013 06:50 2,4 C 94 % 1023,9 hPa 0,0 mm 0,0 km/h (0 Bft) N 0 0 min 0 UV-I 0 W/m 0,0 km/h (0 Bft)
17.02.2013 07:00 2,4 C 94 % 1023,9 hPa 0,0 mm 0,0 km/h (0 Bft) N 0 0 min 0 UV-I 0 W/m 0,0 km/h (0 Bft)
17.02.2013 07:10 2,4 C 94 % 1023,9 hPa 0,0 mm 0,0 km/h (0 Bft) N 0 0 min 0 UV-I 0 W/m 0,0 km/h (0 Bft)
17.02.2013 07:20 2,4 C 94 % 1023,9 hPa 0,0 mm 0,0 km/h (0 Bft) N 0 0 min 0 UV-I 0 W/m 0,0 km/h (0 Bft)
17.02.2013 07:30 2,4 C 94 % 1024,0 hPa 0,0 mm 0,0 km/h (0 Bft) S 180 0 min 0 UV-I 0 W/m 3,2 km/h (1 Bft)
17.02.2013 07:40 2,4 C 94 % 1024,1 hPa 0,0 mm 0,0 km/h (0 Bft) S 180 0 min 0 UV-I 0 W/m 3,2 km/h (1 Bft)
17.02.2013 07:50 2,4 C 94 % 1024,2 hPa 0,0 mm 0,0 km/h (0 Bft) S 180 0 min 0 UV-I 0 W/m 3,2 km/h (1 Bft)
17.02.2013 08:00 2,4 C 94 % 1024,4 hPa 0,0 mm 0,0 km/h (0 Bft) N 0 0 min 0 UV-I 5 W/m 0,0 km/h (0 Bft)
17.02.2013 08:10 2,3 C 94 % 1024,4 hPa 0,0 mm 0,0 km/h (0 Bft) N 0 0 min 0 UV-I 9 W/m 0,0 km/h (0 Bft)
17.02.2013 08:20 2,3 C 94 % 1024,5 hPa 0,0 mm 0,0 km/h (0 Bft) N 0 0 min 0 UV-I 19 W/m 0,0 km/h (0 Bft)
17.02.2013 08:30 2,3 C 94 % 1024,4 hPa 0,0 mm 0,0 km/h (0 Bft) N 0 0 min 0 UV-I 25 W/m 0,0 km/h (0 Bft)
17.02.2013 08:40 2,3 C 94 % 1024,4 hPa 0,0 mm 0,0 km/h (0 Bft) N 0 0 min 0 UV-I 21 W/m 0,0 km/h (0 Bft)
17.02.2013 08:50 2,3 C 94 % 1024,5 hPa 0,0 mm 0,0 km/h (0 Bft) N 0 0 min 0 UV-I 30 W/m 0,0 km/h (0 Bft)
17.02.2013 09:00 2,4 C 94 % 1024,4 hPa 0,0 mm 0,0 km/h (0 Bft) S 180 0 min 0 UV-I 42 W/m 1,6 km/h (1 Bft)
17.02.2013 09:10 2,4 C 94 % 1024,3 hPa 0,0 mm 0,0 km/h (0 Bft) S 180 0 min 0 UV-I 37 W/m 4,8 km/h (1 Bft)
17.02.2013 09:20 2,4 C 94 % 1024,3 hPa 0,0 mm 0,0 km/h (0 Bft) S 180 0 min 0 UV-I 47 W/m 1,6 km/h (1 Bft)
17.02.2013 09:30 2,4 C 94 % 1024,6 hPa 0,0 mm 0,0 km/h (0 Bft) S 180 0 min 0 UV-I 47 W/m 3,2 km/h (1 Bft)
17.02.2013 09:40 2,4 C 94 % 1024,6 hPa 0,0 mm 0,0 km/h (0 Bft) S 180 0 min 0 UV-I 56 W/m 4,8 km/h (1 Bft)
17.02.2013 09:50 2,5 C 94 % 1024,5 hPa 0,0 mm 0,0 km/h (0 Bft) S 180 0 min 0 UV-I 54 W/m 3,2 km/h (1 Bft)
17.02.2013 10:00 2,5 C 94 % 1024,5 hPa 0,0 mm 0,0 km/h (0 Bft) N 0 0 min 0 UV-I 62 W/m 0,0 km/h (0 Bft)
17.02.2013 10:10 2,6 C 94 % 1024,4 hPa 0,0 mm 0,0 km/h (0 Bft) S 180 0 min 0 UV-I 63 W/m 1,6 km/h (1 Bft)
17.02.2013 10:20 2,6 C 94 % 1024,5 hPa 0,0 mm 0,0 km/h (0 Bft) N 0 0 min 0 UV-I 63 W/m 0,0 km/h (0 Bft)
17.02.2013 10:30 2,6 C 94 % 1024,4 hPa 0,0 mm 0,0 km/h (0 Bft) N 0 0 min 0 UV-I 69 W/m 0,0 km/h (0 Bft)
17.02.2013 10:40 2,6 C 94 % 1024,4 hPa 0,0 mm 0,0 km/h (0 Bft) N 0 0 min 0 UV-I 77 W/m 0,0 km/h (0 Bft)
17.02.2013 10:50 2,6 C 94 % 1024,5 hPa 0,0 mm 0,0 km/h (0 Bft) N 0 0 min 0 UV-I 83 W/m 0,0 km/h (0 Bft)
17.02.2013 11:00 2,6 C 94 % 1024,6 hPa 0,0 mm 0,0 km/h (0 Bft) S 180 0 min 1 UV-I 102 W/m 3,2 km/h (1 Bft)
17.02.2013 11:10 2,7 C 94 % 1024,6 hPa 0,0 mm 0,0 km/h (0 Bft) S 180 0 min 1 UV-I 83 W/m 1,6 km/h (1 Bft)
17.02.2013 11:20 2,8 C 94 % 1024,6 hPa 0,0 mm 0,0 km/h (0 Bft) N 0 0 min 1 UV-I 83 W/m 0,0 km/h (0 Bft)
17.02.2013 11:30 2,8 C 94 % 1024,6 hPa 0,0 mm 0,0 km/h (0 Bft) S 180 0 min 1 UV-I 88 W/m 1,6 km/h (1 Bft)
17.02.2013 11:40 3,1 C 94 % 1024,5 hPa 0,0 mm 0,0 km/h (0 Bft) S 180 0 min 1 UV-I 111 W/m 1,6 km/h (1 Bft)
17.02.2013 11:50 3,2 C 94 % 1024,5 hPa 0,0 mm 0,0 km/h (0 Bft) N 0 0 min 1 UV-I 114 W/m 0,0 km/h (0 Bft)
17.02.2013 12:00 3,6 C 94 % 1024,2 hPa 0,0 mm 0,0 km/h (0 Bft) S 180 0 min 1 UV-I 125 W/m 1,6 km/h (1 Bft)
17.02.2013 12:10 3,4 C 93 % 1024,2 hPa 0,0 mm 0,0 km/h (0 Bft) S 180 10 min 1 UV-I 287 W/m 1,6 km/h (1 Bft)
17.02.2013 12:20 3,4 C 93 % 1024,2 hPa 0,0 mm 0,0 km/h (0 Bft) S 180 0 min 1 UV-I 183 W/m 6,4 km/h (2 Bft)
17.02.2013 12:30 3,6 C 93 % 1024,2 hPa 0,0 mm 0,0 km/h (0 Bft) S 180 0 min 1 UV-I 83 W/m 1,6 km/h (1 Bft)
17.02.2013 12:40 3,5 C 93 % 1024,1 hPa 0,0 mm 0,0 km/h (0 Bft) N 0 0 min 1 UV-I 105 W/m 0,0 km/h (0 Bft)
17.02.2013 12:50 3,6 C 93 % 1023,9 hPa 0,0 mm 0,0 km/h (0 Bft) S 180 0 min 1 UV-I 123 W/m 1,6 km/h (1 Bft)
17.02.2013 13:00 3,8 C 92 % 1023,8 hPa 0,0 mm 0,0 km/h (0 Bft) S 180 0 min 1 UV-I 181 W/m 1,6 km/h (1 Bft)
17.02.2013 13:10 4,0 C 91 % 1023,8 hPa 0,0 mm 0,0 km/h (0 Bft) S 180 0 min 1 UV-I 206 W/m 4,8 km/h (1 Bft)
17.02.2013 13:20 4,3 C 90 % 1023,7 hPa 0,0 mm 0,0 km/h (0 Bft) S 180 10 min 1 UV-I 431 W/m 4,8 km/h (1 Bft)
17.02.2013 13:30 4,8 C 88 % 1023,6 hPa 0,0 mm 1,6 km/h (1 Bft) S 180 10 min 1 UV-I 420 W/m 6,4 km/h (2 Bft)
17.02.2013 13:40 4,8 C 87 % 1023,5 hPa 0,0 mm 1,6 km/h (1 Bft) S 180 10 min 1 UV-I 346 W/m 6,4 km/h (2 Bft)
17.02.2013 13:50 5,1 C 85 % 1023,4 hPa 0,0 mm 1,6 km/h (1 Bft) S 180 10 min 1 UV-I 325 W/m 6,4 km/h (2 Bft)
17.02.2013 14:00 5,3 C 84 % 1023,4 hPa 0,0 mm 1,6 km/h (1 Bft) S 180 10 min 1 UV-I 341 W/m 8,0 km/h (2 Bft)
17.02.2013 14:10 5,2 C 85 % 1023,4 hPa 0,0 mm 1,6 km/h (1 Bft) S 180 0 min 1 UV-I 221 W/m 4,8 km/h (1 Bft)
17.02.2013 14:20 5,2 C 84 % 1023,2 hPa 0,0 mm 1,6 km/h (1 Bft) S 180 0 min 1 UV-I 158 W/m 4,8 km/h (1 Bft)
17.02.2013 14:30 5,2 C 84 % 1023,2 hPa 0,0 mm 0,3 km/h (0 Bft) S 185 0 min 0 UV-I 73 W/m 4,8 km/h (1 Bft)
17.02.2013 14:40 5,1 C 85 % 1023,2 hPa 0,0 mm 0,0 km/h (0 Bft) S 184 0 min 1 UV-I 96 W/m 0,0 km/h (0 Bft)
17.02.2013 14:50 5,2 C 83 % 1023,0 hPa 0,0 mm 0,1 km/h (0 Bft) S 185 0 min 1 UV-I 143 W/m 1,6 km/h (1 Bft)
17.02.2013 15:00 5,3 C 83 % 1023,1 hPa 0,0 mm 0,1 km/h (0 Bft) S 184 0 min 1 UV-I 156 W/m 1,6 km/h (1 Bft)
17.02.2013 15:10 5,3 C 84 % 1023,1 hPa 0,0 mm 0,0 km/h (0 Bft) S 180 0 min 1 UV-I 132 W/m 1,6 km/h (1 Bft)
17.02.2013 15:20 5,4 C 84 % 1023,0 hPa 0,0 mm 0,0 km/h (0 Bft) S 180 0 min 1 UV-I 120 W/m 1,6 km/h (1 Bft)
17.02.2013 15:30 5,5 C 83 % 1022,9 hPa 0,0 mm 0,0 km/h (0 Bft) S 180 0 min 1 UV-I 128 W/m 4,8 km/h (1 Bft)
17.02.2013 15:40 5,5 C 83 % 1022,9 hPa 0,0 mm 1,6 km/h (1 Bft) S 180 0 min 1 UV-I 132 W/m 6,4 km/h (2 Bft)
17.02.2013 15:50 5,6 C 82 % 1022,9 hPa 0,0 mm 1,6 km/h (1 Bft) S 180 0 min 0 UV-I 127 W/m 6,4 km/h (2 Bft)
17.02.2013 16:00 5,7 C 82 % 1022,9 hPa 0,0 mm 0,0 km/h (0 Bft) S 180 0 min 0 UV-I 127 W/m 4,8 km/h (1 Bft)
17.02.2013 16:10 5,7 C 83 % 1022,9 hPa 0,0 mm 0,0 km/h (0 Bft) S 180 10 min 0 UV-I 172 W/m 3,2 km/h (1 Bft)
17.02.2013 16:20 5,5 C 83 % 1022,8 hPa 0,0 mm 1,6 km/h (1 Bft) S 180 0 min 0 UV-I 76 W/m 6,4 km/h (2 Bft)
17.02.2013 16:30 5,3 C 84 % 1022,8 hPa 0,0 mm 0,0 km/h (0 Bft) S 180 0 min 0 UV-I 51 W/m 4,8 km/h (1 Bft)
17.02.2013 16:40 5,2 C 85 % 1022,8 hPa 0,0 mm 0,0 km/h (0 Bft) S 180 0 min 0 UV-I 53 W/m 1,6 km/h (1 Bft)
17.02.2013 16:50 5,2 C 85 % 1022,7 hPa 0,0 mm 0,0 km/h (0 Bft) S 180 0 min 0 UV-I 40 W/m 1,6 km/h (1 Bft)
17.02.2013 17:00 5,0 C 85 % 1022,6 hPa 0,0 mm 0,0 km/h (0 Bft) S 180 0 min 0 UV-I 32 W/m 1,6 km/h (1 Bft)
17.02.2013 17:10 4,9 C 85 % 1022,6 hPa 0,0 mm 0,0 km/h (0 Bft) S 180 0 min 0 UV-I 25 W/m 1,6 km/h (1 Bft)
17.02.2013 17:20 4,6 C 85 % 1022,7 hPa 0,0 mm 0,0 km/h (0 Bft) S 180 0 min 0 UV-I 18 W/m 3,2 km/h (1 Bft)
17.02.2013 17:30 4,1 C 85 % 1022,6 hPa 0,0 mm 0,0 km/h (0 Bft) S 180 0 min 0 UV-I 11 W/m 3,2 km/h (1 Bft)
17.02.2013 17:40 3,8 C 85 % 1022,6 hPa 0,0 mm 0,0 km/h (0 Bft) S 180 0 min 0 UV-I 5 W/m 1,6 km/h (1 Bft)
17.02.2013 17:50 3,7 C 86 % 1022,7 hPa 0,3 mm 0,0 km/h (0 Bft) S 180 0 min 0 UV-I 0 W/m 3,2 km/h (1 Bft)
17.02.2013 18:00 3,7 C 85 % 1022,8 hPa 0,0 mm 0,0 km/h (0 Bft) S 180 0 min 0 UV-I 0 W/m 3,2 km/h (1 Bft)
17.02.2013 18:10 3,6 C 85 % 1022,8 hPa 0,0 mm 0,0 km/h (0 Bft) S 180 0 min 0 UV-I 0 W/m 4,8 km/h (1 Bft)
17.02.2013 18:20 3,4 C 85 % 1022,8 hPa 0,0 mm 0,0 km/h (0 Bft) S 180 0 min 0 UV-I 0 W/m 4,8 km/h (1 Bft)
17.02.2013 18:30 3,3 C 85 % 1022,8 hPa 0,0 mm 0,0 km/h (0 Bft) S 180 0 min 0 UV-I 0 W/m 3,2 km/h (1 Bft)
17.02.2013 18:40 3,2 C 85 % 1022,9 hPa 0,0 mm 0,0 km/h (0 Bft) S 180 0 min 0 UV-I 0 W/m 1,6 km/h (1 Bft)
17.02.2013 18:50 3,1 C 86 % 1022,9 hPa 0,0 mm 0,0 km/h (0 Bft) S 180 0 min 0 UV-I 0 W/m 1,6 km/h (1 Bft)
17.02.2013 19:00 3,0 C 86 % 1023,0 hPa 0,0 mm 0,0 km/h (0 Bft) S 180 0 min 0 UV-I 0 W/m 1,6 km/h (1 Bft)
17.02.2013 19:10 2,9 C 86 % 1023,1 hPa 0,0 mm 0,0 km/h (0 Bft) N 0 0 min 0 UV-I 0 W/m 0,0 km/h (0 Bft)
17.02.2013 19:20 2,8 C 86 % 1023,1 hPa 0,0 mm 0,0 km/h (0 Bft) S 180 0 min 0 UV-I 0 W/m 1,6 km/h (1 Bft)
17.02.2013 19:30 2,8 C 86 % 1023,0 hPa 0,0 mm 0,0 km/h (0 Bft) S 180 0 min 0 UV-I 0 W/m 1,6 km/h (1 Bft)
17.02.2013 19:40 2,8 C 87 % 1023,0 hPa 0,0 mm 0,0 km/h (0 Bft) N 0 0 min 0 UV-I 0 W/m 0,0 km/h (0 Bft)
17.02.2013 19:50 2,8 C 87 % 1023,0 hPa 0,0 mm 0,0 km/h (0 Bft) N 0 0 min 0 UV-I 0 W/m 0,0 km/h (0 Bft)
17.02.2013 20:00 2,7 C 87 % 1023,0 hPa 0,0 mm 0,0 km/h (0 Bft) N 0 0 min 0 UV-I 0 W/m 0,0 km/h (0 Bft)
17.02.2013 20:10 2,7 C 87 % 1023,0 hPa 0,0 mm 0,0 km/h (0 Bft) N 0 0 min 0 UV-I 0 W/m 0,0 km/h (0 Bft)
17.02.2013 20:20 2,7 C 87 % 1023,0 hPa 0,0 mm 0,0 km/h (0 Bft) N 0 0 min 0 UV-I 0 W/m 0,0 km/h (0 Bft)
17.02.2013 20:30 2,6 C 87 % 1022,9 hPa 0,0 mm 0,0 km/h (0 Bft) N 0 0 min 0 UV-I 0 W/m 0,0 km/h (0 Bft)
17.02.2013 20:40 2,6 C 87 % 1022,8 hPa 0,0 mm 0,0 km/h (0 Bft) N 0 0 min 0 UV-I 0 W/m 0,0 km/h (0 Bft)
17.02.2013 20:50 2,6 C 88 % 1022,8 hPa 0,0 mm 0,0 km/h (0 Bft) S 180 0 min 0 UV-I 0 W/m 3,2 km/h (1 Bft)
17.02.2013 21:00 2,5 C 88 % 1022,8 hPa 0,0 mm 0,0 km/h (0 Bft) N 0 0 min 0 UV-I 0 W/m 0,0 km/h (0 Bft)
17.02.2013 21:10 2,5 C 88 % 1022,8 hPa 0,0 mm 0,0 km/h (0 Bft) N 0 0 min 0 UV-I 0 W/m 0,0 km/h (0 Bft)
17.02.2013 21:20 2,4 C 88 % 1022,7 hPa 0,0 mm 0,0 km/h (0 Bft) N 0 0 min 0 UV-I 0 W/m 0,0 km/h (0 Bft)
17.02.2013 21:30 2,4 C 88 % 1022,8 hPa 0,0 mm 0,0 km/h (0 Bft) N 0 0 min 0 UV-I 0 W/m 0,0 km/h (0 Bft)
17.02.2013 21:40 2,3 C 88 % 1022,8 hPa 0,0 mm 0,0 km/h (0 Bft) N 0 0 min 0 UV-I 0 W/m 0,0 km/h (0 Bft)
17.02.2013 21:50 2,3 C 88 % 1022,8 hPa 0,0 mm 0,0 km/h (0 Bft) S 180 0 min 0 UV-I 0 W/m 3,2 km/h (1 Bft)
17.02.2013 22:00 2,3 C 88 % 1022,7 hPa 0,0 mm 0,0 km/h (0 Bft) S 180 0 min 0 UV-I 0 W/m 1,6 km/h (1 Bft)
17.02.2013 22:10 2,3 C 88 % 1022,7 hPa 0,0 mm 0,0 km/h (0 Bft) N 0 0 min 0 UV-I 0 W/m 0,0 km/h (0 Bft)
17.02.2013 22:20 2,3 C 88 % 1022,7 hPa 0,0 mm 0,0 km/h (0 Bft) S 180 0 min 0 UV-I 0 W/m 4,8 km/h (1 Bft)
17.02.2013 22:30 2,3 C 88 % 1022,7 hPa 0,0 mm 1,6 km/h (1 Bft) S 180 0 min 0 UV-I 0 W/m 4,8 km/h (1 Bft)
17.02.2013 22:40 2,3 C 89 % 1022,8 hPa 0,0 mm 0,0 km/h (0 Bft) S 180 0 min 0 UV-I 0 W/m 4,8 km/h (1 Bft)
17.02.2013 22:50 2,3 C 89 % 1022,8 hPa 0,0 mm 0,0 km/h (0 Bft) S 180 0 min 0 UV-I 0 W/m 1,6 km/h (1 Bft)
17.02.2013 23:00 2,3 C 89 % 1022,7 hPa 0,0 mm 0,0 km/h (0 Bft) S 180 0 min 0 UV-I 0 W/m 3,2 km/h (1 Bft)
17.02.2013 23:10 2,3 C 89 % 1022,8 hPa 0,0 mm 0,0 km/h (0 Bft) S 180 0 min 0 UV-I 0 W/m 4,8 km/h (1 Bft)
17.02.2013 23:20 2,3 C 89 % 1022,8 hPa 0,0 mm 0,0 km/h (0 Bft) S 180 0 min 0 UV-I 0 W/m 3,2 km/h (1 Bft)
17.02.2013 23:30 2,3 C 89 % 1022,8 hPa 0,0 mm 0,0 km/h (0 Bft) S 180 0 min 0 UV-I 0 W/m 4,8 km/h (1 Bft)
17.02.2013 23:40 2,4 C 89 % 1022,7 hPa 0,0 mm 0,0 km/h (0 Bft) S 180 0 min 0 UV-I 0 W/m 4,8 km/h (1 Bft)
17.02.2013 23:50 2,5 C 89 % 1022,7 hPa 0,0 mm 0,0 km/h (0 Bft) S 180 0 min 0 UV-I 0 W/m 3,2 km/h (1 Bft)
_ Min-Zeit 22:20 15:50 17:00 - 00:00 - - - - - 00:00
Minimum _ 2.2 C 82 % 1022.6 hPa - 0.0 km/h (0 Bft) - - - - - 0.0 km/h (0 Bft)
_ Max-Zeit 15:50 00:00 09:30 17:50 05:50 - - 12:10 13:20 13:20 14:00
Maximum _ 5.7 C 94 % 1024.6 hPa 0.3 mm 1.6 km/h
S (1 Bft)
- - 10 min 1 UV-I 431 W/m 8.0 km/h
S (2 Bft)
Durchschnitt _ 3.2 C 90 % 1023.6 hPa #0.3 mm 0.1 km/h (0 Bft) S - #1:10 h 1 UV-I 113 W/m 1.8 km/h (1 Bft)